Weather History for Livingston, MT

Change the Weather History Date:

Monday, March 11, 2013

  Actual Average Record
Temperature  
Mean Temperature 34 °F 35 °F  
Max Temperature 48 °F 47 °F 70 °F (1983)
Min Temperature 19 °F 23 °F -20 °F (1956)
Degree Days  
Heating Degree Days 30 30  
Month to date heating degree days 349  
Since 1 July heating degree days 5697  
Cooling Degree Days 0 0  
Month to date cooling degree days 0  
Year to date cooling degree days 0  
Moisture  
Dew Point 18 °F    
Average Humidity 49    
Maximum Humidity 68    
Minimum Humidity 20    
Precipitation  
Precipitation 0.00 in 0.02 in 0.46 in (1991)
Month to date precipitation 0.23  
Year to date precipitation 1.22  
Sea Level Pressure  
Sea Level Pressure 30.10 in    
Wind  
Wind Speed 21 mph (West)    
Max Wind Speed 32 mph    
Max Gust Speed 40 mph    
Visibility 10 miles    
Events      
T = Trace of Precipitation, MM = Missing Value Source: NWS Daily Summary

Daily Weather History Graph

Daily Weather History Graph

Search for Another Location

Airport:

Trip Planner

Search our weather history database for the weather conditions in past years. The results will help you decide how hot, cold, wet, or windy it might be!

Date:

Astronomy

Mar. 11, 2013 Rise Set
Actual Time 7:41 AM MDT 7:22 PM MDT
Civil Twilight 7:11 AM MDT 7:52 PM MDT
Nautical Twilight 6:37 AM MDT 8:26 PM MDT
Astronomical Twilight 6:02 AM MDT 9:01 PM MDT
Moon 7:15 AM MDT (3/11) 7:41 PM MDT (3/11)
Length of Visible Light 12h 40m
Length of Day
11h 41m
Waning Crescent, 0% of the Moon is Illuminated
Mar 11
Waning Crescent
Mar 11
New
Mar 19
First Quarter
Mar 27
Full
Apr 2
Last Quarter

Hourly Weather History & Observations

Time (MDT) Temp. Windchill Dew Point Humidity Pressure Visibility Wind Dir Wind Speed Gust Speed Precip Events Conditions
12:53 AM 41.0 °F 29.5 °F 26.1 °F 55% 30.04 in 10.0 mi West 32.2 mph 40.3 mph N/A   Overcast
1:53 AM 37.9 °F 27.1 °F 28.0 °F 68% 30.03 in 10.0 mi WSW 23.0 mph 29.9 mph N/A   Overcast
2:53 AM 37.9 °F 27.3 °F 27.0 °F 65% 30.03 in 10.0 mi SW 21.9 mph 31.1 mph N/A   Overcast
3:53 AM 37.9 °F 30.0 °F 26.1 °F 62% 30.03 in 10.0 mi WSW 12.7 mph 23.0 mph N/A   Partly Cloudy
4:53 AM 37.0 °F 31.0 °F 24.1 °F 59% 30.03 in 10.0 mi SW 8.1 mph - N/A   Mostly Cloudy
5:53 AM 37.9 °F 27.9 °F 25.0 °F 60% 30.04 in 10.0 mi WSW 19.6 mph - N/A   Scattered Clouds
6:53 AM 37.9 °F 28.2 °F 24.1 °F 57% 30.04 in 10.0 mi WSW 18.4 mph 25.3 mph N/A   Overcast
7:53 AM 37.0 °F 27.7 °F 23.0 °F 57% 30.04 in 10.0 mi WSW 16.1 mph - N/A   Partly Cloudy
8:53 AM 37.0 °F 26.2 °F 21.9 °F 54% 30.04 in 10.0 mi WSW 21.9 mph - N/A   Clear
9:53 AM 41.0 °F 31.9 °F 21.9 °F 47% 30.03 in 10.0 mi West 19.6 mph 27.6 mph N/A   Clear
10:53 AM 44.1 °F 34.0 °F 18.0 °F 35% 30.03 in 10.0 mi West 29.9 mph 36.8 mph N/A   Scattered Clouds
11:53 AM 44.1 °F 35.7 °F 10.9 °F 26% 30.04 in 10.0 mi WNW 20.7 mph 31.1 mph N/A   Mostly Cloudy
12:53 PM 45.0 °F 36.0 °F 9.0 °F 23% 30.04 in 10.0 mi WNW 25.3 mph 38.0 mph N/A   Partly Cloudy
1:53 PM 46.0 °F 37.2 °F 7.0 °F 20% 30.04 in 10.0 mi NW 26.5 mph 40.3 mph N/A   Scattered Clouds
2:53 PM 48.0 °F - 8.1 °F 20% 30.03 in 10.0 mi West 29.9 mph 39.1 mph N/A   Clear
3:53 PM 45.0 °F 35.8 °F 12.9 °F 27% 30.05 in 10.0 mi NNW 26.5 mph 32.2 mph N/A   Mostly Cloudy
4:53 PM 44.1 °F 35.9 °F 18.0 °F 35% 30.08 in 10.0 mi NNW 19.6 mph 29.9 mph N/A   Scattered Clouds
5:53 PM 39.9 °F 31.8 °F 17.1 °F 40% 30.11 in 10.0 mi NNW 15.0 mph 25.3 mph N/A   Partly Cloudy
6:53 PM 37.0 °F 29.3 °F 16.0 °F 42% 30.16 in 10.0 mi NNW 11.5 mph 16.1 mph N/A   Partly Cloudy
7:53 PM 27.0 °F 15.2 °F 14.0 °F 58% 30.25 in 10.0 mi ENE 15.0 mph - N/A   Overcast
8:53 PM 25.0 °F 12.2 °F 14.0 °F 63% 30.29 in 10.0 mi East 16.1 mph - N/A   Overcast
9:53 PM 24.1 °F 13.7 °F 12.9 °F 62% 30.30 in 10.0 mi East 10.4 mph - N/A   Overcast
10:53 PM 21.0 °F 14.6 °F 12.0 °F 68% 30.32 in 10.0 mi East 4.6 mph - N/A   Clear
11:53 PM 19.9 °F - 10.9 °F 68% 30.34 in 10.0 mi Calm Calm - N/A   Clear